Terminal Aerodrome Forecast
Issued by NWS Jacksonville, FL

Home | Current Version | Previous Version | Text Only | Print | Product List | Glossary On
Versions: 1 2 3 4 5 6 7 8 9 10 11 12 13 14 15 16 17 18 19 20 21 22 23 24 25 26 27 28 29 30 31 32 33 34
000
FTUS42 KJAX 240215 AAE
TAFJAX
TAF AMD
KJAX 240215Z 2402/2424 22010G20KT 5SM -TSRA BR SCT020 BKN030CB
      OVC050
      TEMPO 2402/2406 VRB20G30KT 2SM +TSRA BR SCT010 BKN025CB OVC040
     FM240600 20010G15KT 4SM SHRA VCTS SCT010 BKN025CB OVC040
     FM241300 22015G25KT 4SM SHRA VCTS OVC020CB=

USA.gov is the U.S. government's official web portal to all federal, state and local government web resources and services.